Flag for Spain Weather past 2 weeks in Zaragoza, Spain

Now
45 °F

Passing clouds.


Feels Like: 37 °F
Forecast: 37 / 56 °F
Wind: 20 mph from Northwest

Location: Zaragoza / Aeropuerto

Current Time: Jan 28, 2015 at 10:22:21 AM

Latest Report: Jan 28, 2015 at 9:30 AM


Visibility: N/A

Pressure: 30.24 "Hg

Humidity: 76%

Dew point: 37 °F

Location of ZaragozaLocation

Historic Weather in Zaragoza — Graph

°F

Zaragoza temperature yesterday

Maximum temperature yesterday: 57 °F (at 2:00 PM)
Minimum temperature yesterday: 43 °F (at 2:00 AM)
Average temperature yesterday: 48 °F

Past Weeks' High & Low Weather Summary

 TemperatureHumidityPressure
High57 °F (Jan 27, 2:00 PM)100% (Jan 13, 9:00 AM)30.39 "Hg (Jan 13, 9:00 AM)
Low30 °F (Jan 14, 8:00 AM)30% (Jan 25, 3:30 PM)29.71 "Hg (Jan 21, 1:00 PM)
Average42 °F74%30.08 "Hg
* Reported Jan 13 9:00 AM — Jan 28 9:30 AM, Zaragoza, Weather by CustomWeather, © 2014

Note: Actual official high and low records may vary slightly from our data, if they occured in-between our weather recording intervals... More about our weather records

Advertising

Zaragoza weather history for previous 24 hours

 ConditionsComfort  
Time TempWeatherWind HumidityBarometerVisibility
9:30 AM
Jan 28
45 °FPassing clouds.20 mph76%30.24 "HgN/A
9:00 AM45 °FScattered clouds.20 mph76%30.24 "HgN/A
8:30 AM43 °FScattered clouds.21 mph81%30.24 "HgN/A
8:00 AM43 °FPassing clouds.18 mph81%30.24 "HgN/A
7:30 AM43 °FPassing clouds.20 mph81%30.24 "HgN/A
7:00 AM43 °FPassing clouds.21 mph81%30.24 "HgN/A
6:30 AM43 °FPassing clouds.18 mph81%30.24 "HgN/A
6:00 AM43 °FPassing clouds.21 mph81%30.24 "HgN/A
5:30 AM45 °FPassing clouds.21 mph76%30.24 "HgN/A
5:00 AM45 °FPassing clouds.20 mph76%30.24 "HgN/A
4:30 AM43 °FPassing clouds.17 mph76%30.24 "HgN/A
4:00 AM45 °FPassing clouds.25 mph71%30.24 "HgN/A
3:30 AM45 °FPassing clouds.24 mph71%30.24 "HgN/A
3:00 AM45 °FPassing clouds.28 mph71%30.24 "HgN/A
2:30 AM45 °FPassing clouds.26 mph71%30.27 "HgN/A
2:00 AM43 °FPassing clouds.18 mph76%30.27 "HgN/A
1:30 AM43 °FPassing clouds.22 mph76%30.30 "HgN/A
1:00 AM45 °FPassing clouds.25 mph71%30.27 "HgN/A
12:30 AM45 °FPassing clouds.21 mph71%30.30 "HgN/A
12:00 AM45 °FPassing clouds.23 mph76%30.30 "HgN/A
11:30 PM
Jan 27
45 °FPassing clouds.25 mph76%30.27 "HgN/A
11:00 PM45 °FPassing clouds.25 mph76%30.27 "HgN/A
10:30 PM45 °FPassing clouds.24 mph76%30.27 "HgN/A
10:00 PM45 °FClear.28 mph76%30.27 "Hg10 mi
9:30 PM45 °FClear.37 mph71%30.24 "Hg10 mi
9:00 PM46 °FPassing clouds.36 mph71%30.24 "HgN/A
8:30 PM46 °FPassing clouds.32 mph71%30.24 "HgN/A
8:00 PM46 °FPassing clouds.30 mph71%30.27 "HgN/A
7:30 PM46 °FPassing clouds.30 mph66%30.27 "HgN/A
7:00 PM48 °FPassing clouds.31 mph62%30.27 "HgN/A
6:30 PM48 °FPassing clouds.28 mph62%30.27 "HgN/A
6:00 PM48 °FPassing clouds.32 mph62%30.27 "HgN/A
5:30 PM50 °FPassing clouds.37 mph58%30.24 "HgN/A
5:00 PM52 °FPassing clouds.33 mph54%30.24 "HgN/A
4:30 PM52 °FPassing clouds.31 mph54%30.24 "HgN/A
4:00 PM52 °FPassing clouds.31 mph58%30.24 "HgN/A
3:30 PM55 °FPassing clouds.31 mph51%30.24 "HgN/A
3:00 PM54 °FPassing clouds.36 mph54%30.24 "HgN/A
2:30 PM55 °FPassing clouds.32 mph55%30.27 "HgN/A
2:00 PM57 °FPassing clouds.29 mph55%30.27 "HgN/A
1:30 PM55 °FPassing clouds.31 mph55%30.27 "HgN/A
1:00 PM55 °FPassing clouds.31 mph59%30.27 "HgN/A
12:30 PM54 °FPassing clouds.31 mph63%30.30 "HgN/A
12:00 PM54 °FPassing clouds.30 mph63%30.30 "HgN/A
11:30 AM52 °FPassing clouds.26 mph67%30.30 "HgN/A
11:00 AM50 °FPassing clouds.26 mph71%30.33 "HgN/A
10:30 AM48 °FPassing clouds.28 mph71%30.33 "HgN/A
10:00 AM48 °FPassing clouds.26 mph71%30.33 "HgN/A
Weather by CustomWeather, © 2014

See weather overviewHow to use our weather pages